STARLINK-30148 (57617 NORAD) Tracking and Keplerian Element Data

This shows tracking and keplerian element data for the satellite.

Feedback or suggestion? Click here.




ElementValue
Catalog57617
NameSTARLINK-30148
Epoch Orbit2475
Epoch Day13.14695565
Epoch Year2024
RAAN35.9607
Inclination43.003
Eccentricity0.0001063
Argument of Perigee272.0779
Mean Anonmoly87.9942
Mean Motion15.02522566
Decay Rate0.00014878
L11 57617U 23119R 24013.14695565 .00014878 00000+0 11145-2 0 9994
L22 57617 43.0030 35.9607 0001063 272.0779 87.9942 15.02522566 24753



Live tracking and technical data element details for STARLINK-30148 (NORAD 57617). STARLINK-30148 can be tracked NOW for your location showing map with azimuth and elevation plus other details from your city location.







IsCatalogInMostPopularTable: catalog: 57617, numindb: 24
Update: records affected: 1



GetName: 57617 STARLINK-30148

Hit Count: updated at: Sun, 25 Feb 2024 21:41:58 GMT